Location: Bartshausen
(51.8454°N, 9.8167°E)
Time: 23:47:25
(UTC+00:00)

USA 267 - Pass Details

Date: 08 November 2025
Orbit: 1100 x 1108 km, 123.0° (Epoch: 21 November)

Event Time Altitude Azimuth Distance (km) Brightness Sun altitude
Rises 03:10:10 0° 59° (ENE) 3,924 7.2 -30.5°
Reaches altitude 10° 03:12:40 10° 62° (ENE) 2,964 6.4 -30.2°
Maximum altitude 03:19:12 72° 146° (SE) 1,153 3.3 -29.2°
Enters shadow 03:20:18 61° 201° (SSW) 1,241 3.3 -29.0°
